Dewpoint
34 36 37 40 41 42 42 43 42 42 40 39 38 36 35 34 32 33 36 31 33 32 39 42 41 41 40 40 40 42 44 43 45 45 44 44 45 44 45 45 45 44 44
32 34 36 37 39 40 42 42 43 43 42 40 39 37 35 35 34 33 32 31 32 36 42 41 40 40 40 40 41 43 44 44 46 45 44 41 41 45 44 44 44 43 44
32 32 34 35 38 38 39 40 42 44 43 41 40 38 36 34 32 30 30 32 32 40 42 41 41 41 41 40 41 42 44 43 46 46 45 42 42 42 44 43 43 43 44
27 29 30 30 32 36 38 40 42 43 44 42 41 39 38 36 34 32 33 31 32 41 41 41 41 41 41 41 41 42 43 44 44 46 46 45 44 43 41 43 43 44 43
25 25 27 29 30 32 33 36 38 40 43 43 43 41 39 38 36 34 31 30 31 39 41 41 41 42 42 41 41 42 43 44 45 45 46 44 43 44 43 41 41 43 44
26 27 28 30 29 30 31 33 35 37 40 43 43 42 41 40 37 35 31 29 31 36 40 40 41 42 42 42 42 42 44 44 45 46 46 44 43 42 42 40 41 43 43
26 28 29 30 30 30 31 31 33 33 36 40 42 43 42 41 38 35 31 28 28 32 34 39 40 41 41 42 41 42 43 43 44 45 45 46 46 46 45 45 43 42 42
28 29 30 31 30 30 31 31 32 32 34 36 37 40 42 41 39 35 31 29 29 30 35 38 40 40 40 41 42 43 44 43 43 43 43 44 44 44 45 45 43 41 40
28 29 30 31 30 30 31 32 32 33 33 35 36 37 40 40 38 34 31 29 28 30 33 37 39 40 40 41 41 42 43 43 43 43 43 43 44 44 45 45 45 43 39
27 28 30 30 30 30 31 32 32 33 33 35 36 37 39 39 36 32 30 27 27 27 28 31 37 39 40 40 40 40 40 39 40 40 42 41 42 43 44 44 44 44 43
29 29 31 30 30 31 31 31 32 32 32 34 36 37 38 37 34 31 29 27 27 26 27 30 32 35 38 39 39 38 38 37 37 37 39 38 38 38 38 39 41 42 42
30 31 31 31 30 31 31 31 31 32 32 34 35 37 39 38 36 32 29 27 26 26 26 27 29 32 34 36 37 38 38 37 37 37 37 37 35 33 34 36 36 37 38
31 31 31 30 30 30 31 31 31 32 33 33 33 34 37 37 35 31 30 28 27 26 26 26 26 27 29 31 34 34 33 33 34 35 35 34 32 33 34 34 35 36 37
31 31 31 30 29 29 29 30 30 32 32 32 32 33 36 38 37 35 33 31 29 27 26 26 26 27 28 30 31 31 31 32 32 31 32 33 33 33 34 35 38 40 40
30 31 30 29 28 28 28 29 30 31 31 31 31 33 37 39 38 37 36 34 32 30 28 28 28 28 29 29 29 30 30 31 31 32 33 34 34 36 37 37 38 40 39
31 30 29 28 27 27 27 28 29 29 30 30 30 32 33 34 35 36 36 35 33 32 31 30 29 28 28 29 31 32 32 32 32 32 33 33 33 34 37 37 37 38 38
30 30 28 27 27 26 27 27 28 29 28 28 29 29 31 32 33 34 34 34 33 32 31 30 29 29 28 30 31 32 33 33 32 32 32 32 32 33 36 34 35 35 36
30 30 28 28 28 26 25 27 27 26 26 26 27 29 30 30 31 32 32 32 32 32 32 31 30 30 29 31 32 33 33 32 32 32 32 32 31 33 34 35 36 36 32
30 30 28 28 28 24 25 26 25 24 24 26 27 28 29 30 30 30 31 32 32 31 31 31 31 30 30 31 32 33 32 31 31 31 31 31 31 32 34 33 33 33 31
31 29 29 28 25 21 25 25 22 22 22 26 28 28 29 29 28 29 30 31 31 31 31 30 30 30 31 32 32 33 32 31 30 30 30 31 32 32 33 32 31 30 30
31 29 29 27 22 23 25 22 22 20 23 27 28 28 28 29 29 29 30 30 30 30 30 29 29 29 29 29 31 32 32 31 30 29 29 30 31 31 31 32 32 31 31
31 30 28 24 22 22 23 21 20 22 25 27 27 27 27 29 29 29 29 29 29 29 29 29 28 29 28 28 30 31 32 33 31 30 29 29 30 31 31 31 31 31 30
30 29 26 22 21 20 21 20 20 22 24 26 26 25 27 28 29 29 28 28 29 29 29 29 29 29 29 29 29 30 31 31 31 32 32 32 32 32 32 32 31 31 29
29 27 22 21 19 20 20 21 21 22 24 25 25 25 26 27 29 29 29 29 28 28 29 30 30 30 31 31 30 28 27 27 28 29 33 33 33 33 32 31 30 29 29
27 24 22 20 21 20 19 20 21 23 24 25 24 24 25 26 27 28 29 28 29 30 30 31 31 30 29 30 34 35 35 30 28 29 29 30 31 30 29 28 27 25 25
24 22 22 22 21 21 20 20 22 23 24 24 23 23 25 26 27 28 28 29 30 30 32 33 32 30 31 30 30 32 34 35 36 33 29 27 27 27 27 26 25 24 24
Wind_Speed
7 7 8 7 7 4 4 4 7 8 6 6 7 3 6 9 7 9 9 10 6 7 7 4 7 8 9 10 9 7 8 8 7 7 8 9 8 5 4 4 3 2 4
10 9 8 7 6 8 10 7 9 10 8 5 3 4 3 4 6 8 8 8 10 8 6 3 6 7 7 9 9 7 5 4 5 4 5 5 4 8 10 6 4 7 6
12 14 16 15 13 13 13 10 12 13 11 8 5 4 4 4 5 6 9 9 12 9 4 5 5 6 5 7 7 7 7 6 5 8 4 4 3 14 4 9 5 10 9
11 12 14 17 17 17 14 12 13 14 14 9 8 9 9 10 4 8 7 13 11 8 7 7 6 6 4 6 6 5 6 4 8 8 3 2 2 4 7 4 13 8 14
10 13 14 13 15 14 15 15 14 15 14 12 11 12 12 10 9 9 11 10 9 7 8 7 7 8 7 5 6 8 7 4 5 6 5 4 6 4 4 12 7 12 8
13 14 13 13 15 15 15 16 14 14 15 12 13 14 15 14 11 11 11 10 8 8 7 7 7 8 8 8 8 7 7 7 7 8 5 4 4 7 8 13 16 15 8
12 14 16 16 16 16 17 16 14 16 15 12 13 15 16 14 14 13 10 11 9 7 9 7 7 8 9 10 8 8 8 8 7 7 8 7 6 6 8 12 16 12 9
9 12 14 14 13 13 15 18 18 18 15 13 13 12 13 13 13 12 10 10 9 9 8 8 8 8 8 9 9 7 8 8 8 10 9 8 8 9 9 10 12 18 14
11 14 16 13 13 13 16 18 19 18 18 14 12 12 10 11 13 11 9 10 8 8 8 8 8 8 8 8 9 8 8 7 9 10 11 10 9 8 10 10 10 12 16
13 13 15 14 13 14 16 17 17 16 15 15 12 12 9 9 10 8 11 10 9 8 8 9 8 9 9 9 8 9 8 9 11 9 8 7 7 9 9 10 10 10 13
13 14 15 13 14 15 17 18 18 18 18 15 12 11 11 9 8 10 10 10 9 9 9 9 9 10 10 10 10 11 11 10 9 10 12 10 8 11 11 12 11 11 10
12 12 11 14 16 17 17 18 19 19 17 15 13 12 10 8 8 10 10 9 11 9 10 9 9 10 10 10 10 11 10 12 13 13 13 11 9 13 12 12 12 12 12
12 10 14 16 16 18 18 18 18 19 19 17 16 14 11 9 9 10 10 9 10 11 10 9 11 11 11 11 10 11 12 12 12 11 11 13 12 13 11 12 13 12 11
8 11 15 15 15 16 17 17 18 17 18 19 17 16 14 11 10 9 10 10 10 11 11 11 12 12 11 11 12 13 13 14 12 11 12 13 13 14 13 12 13 12 12
8 11 13 12 12 13 15 16 16 15 16 17 16 17 15 12 11 11 11 11 10 11 12 13 13 13 12 12 13 13 13 13 14 13 12 11 13 14 16 14 11 9 9
9 11 13 12 12 12 13 13 14 16 14 14 15 15 15 14 12 11 11 11 12 12 11 13 14 15 13 13 15 15 14 14 14 15 13 12 13 15 16 14 13 13 11
9 11 13 10 10 10 10 12 13 12 13 13 14 15 15 15 15 14 13 13 13 10 13 13 14 16 16 16 17 17 15 15 16 16 15 13 11 13 13 13 15 15 14
11 12 13 10 10 8 10 10 10 11 11 13 15 15 15 15 14 14 13 14 12 14 15 15 15 16 15 16 17 17 15 16 17 17 16 16 14 13 14 12 13 12 12
10 12 12 9 9 11 10 11 12 12 11 13 15 17 17 18 18 17 17 15 13 14 14 14 16 17 18 16 18 16 15 17 18 17 16 16 16 15 15 14 13 14 13
11 12 10 8 9 9 7 10 13 14 14 14 15 16 16 16 18 16 18 14 14 16 16 18 16 17 19 16 19 17 14 18 16 15 15 19 18 16 16 16 14 16 14
14 10 9 11 12 8 5 10 11 13 12 12 13 14 14 14 13 14 12 14 16 16 17 17 18 16 16 19 18 19 16 17 17 17 15 14 16 18 18 18 15 16 12
13 12 10 13 11 10 7 11 14 14 12 12 13 14 14 12 12 13 15 15 14 16 18 18 18 14 14 15 19 18 18 20 19 20 15 15 16 17 17 16 17 17 17
13 10 10 11 11 10 8 12 16 14 15 15 15 15 15 14 13 12 14 14 14 13 16 15 17 19 18 15 17 21 22 20 20 20 20 19 18 18 17 19 18 17 13
14 8 8 11 13 12 11 12 15 15 14 16 17 16 15 16 13 12 11 11 13 14 13 15 17 19 19 19 17 15 16 19 18 18 20 20 19 18 17 15 15 13 12
9 7 10 12 14 15 16 15 15 14 16 16 17 18 16 17 17 15 13 13 14 12 14 16 16 19 22 21 25 25 22 17 17 17 12 14 15 15 16 15 15 14 13
10 11 13 12 16 17 17 18 10 13 16 18 17 17 17 17 16 16 18 13 16 18 20 23 22 20 22 26 27 29 29 28 28 22 16 16 15 18 18 16 14 13 14
Wind_Direction
322 314 323 318 331 328 326 331 321 327 313 315 317 35 329 327 322 337 331 332 345 340 339 353 348 349 345 335 329 323 328 328 327 315 316 293 303 310 359 338 284 1 343
339 338 333 320 311 312 297 349 315 298 280 275 289 313 307 284 287 305 317 326 337 334 325 338 347 342 347 351 353 360 337 309 343 331 311 343 338 348 337 359 0 13 4
329 329 337 333 328 321 314 322 306 287 277 263 276 290 293 296 313 318 325 330 329 326 324 321 339 331 348 348 339 350 5 341 317 338 296 339 340 338 336 353 24 3 360
346 337 342 338 331 319 319 321 307 294 284 264 260 260 274 292 274 298 300 316 323 322 330 309 318 304 318 336 335 342 333 333 317 335 45 7 345 335 318 315 327 342 333
332 337 337 329 328 343 337 322 302 290 281 271 260 261 264 263 276 288 302 311 317 321 323 315 313 306 307 317 317 325 329 316 300 296 302 318 317 299 265 300 304 313 291
338 334 329 333 342 345 346 340 325 308 296 275 264 259 267 274 281 290 300 308 308 314 316 316 304 306 314 320 312 309 308 316 300 286 289 287 282 291 291 293 302 297 304
327 331 337 336 332 339 343 344 337 320 317 301 278 267 263 263 263 271 282 298 309 312 310 306 308 308 311 308 304 303 308 308 307 330 322 312 274 265 288 285 289 290 304
320 331 331 321 319 324 336 340 337 328 321 312 301 285 264 257 257 260 269 276 278 284 288 288 281 292 305 307 306 298 298 298 308 309 315 311 300 300 286 274 292 298 294
317 319 325 326 321 324 327 333 331 326 323 314 306 299 274 252 249 250 256 267 274 279 281 284 281 286 298 304 304 314 310 319 307 288 282 281 284 284 285 291 286 287 300
322 323 330 331 330 328 326 331 333 327 322 320 312 305 291 264 253 250 262 262 269 270 279 283 282 286 289 291 294 289 291 297 297 295 315 318 325 314 295 281 280 280 286
316 320 328 337 336 332 336 332 334 334 335 334 322 312 302 280 255 255 263 266 275 275 277 279 286 287 287 287 285 282 279 269 269 281 282 277 290 296 301 305 298 286 280
317 319 330 333 337 336 335 333 332 333 332 330 326 315 304 289 272 270 270 270 271 274 274 279 280 281 281 281 278 278 281 283 282 284 289 280 292 293 287 284 285 285 286
328 334 338 339 337 334 334 335 335 334 332 332 329 324 310 298 281 271 270 267 269 271 269 263 270 274 275 279 273 272 275 274 273 273 271 276 282 280 277 280 279 274 273
319 333 337 336 339 342 340 338 336 337 336 335 334 331 328 311 301 289 285 281 275 274 270 268 268 265 266 263 262 264 266 265 261 263 267 274 273 272 273 273 280 279 280
315 321 323 329 333 338 339 341 341 343 344 345 347 345 340 333 320 311 306 299 290 279 275 276 272 269 268 266 266 264 260 257 262 263 266 266 265 267 268 268 273 292 296
295 322 322 318 329 333 335 337 341 344 348 353 352 349 350 346 338 322 308 300 296 289 278 271 270 271 263 258 264 266 263 259 260 264 267 266 274 272 270 269 284 285 290
285 310 305 296 308 317 322 326 331 335 346 350 350 352 350 345 341 336 328 316 307 295 291 285 279 275 269 265 265 264 259 256 255 256 255 262 259 269 274 273 276 277 282
291 298 293 288 295 300 310 318 327 337 342 346 344 344 345 342 339 336 332 323 317 311 305 300 290 283 276 268 267 265 263 261 257 252 249 254 258 259 266 272 270 267 278
270 277 275 272 286 302 314 323 329 338 341 344 341 339 341 340 342 343 337 328 321 318 311 301 298 291 288 274 268 264 256 258 260 255 248 250 253 257 257 259 264 268 272
261 279 277 265 276 294 313 323 326 334 336 336 332 334 337 339 340 339 336 330 325 319 319 313 299 292 289 280 273 265 254 260 259 258 248 249 250 254 256 254 250 266 266
281 289 268 268 281 296 304 308 309 315 317 321 322 325 327 326 326 327 328 328 329 326 323 317 311 302 291 293 286 278 264 256 260 258 253 241 246 250 253 256 249 255 273
297 300 271 278 294 298 301 303 308 309 310 316 316 318 317 313 313 325 329 331 332 333 330 326 320 308 293 283 286 287 275 267 258 259 253 242 242 247 245 251 256 260 269
294 285 260 281 293 290 288 297 300 308 307 309 309 311 310 308 303 309 318 321 320 320 317 316 312 310 311 299 287 292 288 278 269 259 252 246 244 241 245 249 254 260 267
309 292 288 290 294 298 281 271 290 298 295 295 298 303 303 303 296 288 290 297 307 309 305 307 308 308 307 303 304 292 285 290 285 272 259 246 240 234 234 242 247 248 251
297 288 286 289 289 296 303 294 285 283 279 285 292 295 292 293 299 297 295 295 284 277 293 293 295 302 303 303 302 299 294 278 270 281 272 253 237 237 236 238 241 247 246
318 312 301 293 292 297 296 291 285 292 285 284 287 288 288 289 288 292 299 280 276 286 289 288 287 289 280 295 301 301 299 299 287 270 248 251 241 239 237 234 237 232 235